sat.trackr.live / text

‹ back to catalog

PELICAN-6

NORAD 66703 · 2025-276AP

PAYLOAD ACTIVE UNKNOWN

§ Identity

Operator
Country
US
Launch date
2025-11-28
Launch site
AFWTR
Launch vehicle
Mass (kg)
RCS (m²)

Purposes: earth_obs

External: N2YO · Heavens-Above · Gunter

§ Orbital elements

Epoch: 2026-09-20T04:50:02.768352Z

Period
93.81 min
Inclination
97.3306°
Eccentricity
0.0002010
Mean motion
15.34976397 rev/d
Perigee alt
459.6 km
Apogee alt
462.4 km
Semi-major
6,839.1 km
B*
1.1856e-4
RAAN
337.8419°
Arg perigee
95.0617°
Mean anomaly
265.0855°
Rev number
4,508

§ Raw data

PELICAN-61 66703U 25276AP  26263.20142093  .00003942  00000+0  11856-3 0  99952 66703  97.3306 337.8419 0002010  95.0617 265.0855 15.34976397 45080

JSON: /api/v1/satellites/66703 · /tle

For live sub-satellite position, see the globe view (requires WebGL).

§ Visibility from observer

Set your observer location to see the next 7 days of passes ≥ 10°. The values pass through the URL so the page stays shareable.

No JS? Fill the form by hand. The geolocation button needs JavaScript.